Tracking 30166 objects as of 22-Jan-2025
HD Live streaming from Space Station
objects crossing your sky now

STARLINK-32641

Track STARLINK-32641 now!
10-day predictions
STARLINK-32641 is classified as:


NORAD ID: 62236
Int'l Code: 2024-231U
Perigee: 453.8 km
Apogee: 454.9 km
Inclination: 53.2 °
Period: 93.5 minutes
Semi major axis: 6825 km
RCS: Unknown
Launch date: December 5, 2024
Source: United States (US)
Launch site: AIR FORCE WESTERN TEST RANGE (AFWTR)
Your satellite tracking list
Your tracking list is empty




NASA's NSSDC Master Catalog

Two Line Element Set (TLE):
1 62236U 24231U   25022.24416012  .00000977  00000-0  34387-4 0  9994
2 62236  53.1622 335.7741 0000866  87.5927 272.5177 15.39628851  8667
Source of the keplerian elements: AFSPC